Home > Weather > Erie > Past weeks

Flag for U.S.A. Weather for the Past 2 Weeks in Erie, Pennsylvania, U.S.A.

Now
19 °F

Mostly cloudy.


Feels Like: 5 °F
Forecast: 15 / 17 °F
Wind: 15 mph from Northwest

Location: Erie International Airport

Current Time: Feb 10, 2016 at 10:00:08 PM

Latest Report: Feb 10, 2016 at 8:51 PM


Visibility: 10 mi

Pressure: 29.90 "Hg

Humidity: 62%

Dew point: 8 °F

Location of ErieLocation

Historic Weather in Erie — Graph

°F

Erie Temperature Yesterday

Maximum temperature yesterday: 36 °F (at 10:51 AM)
Minimum temperature yesterday: 29 °F (at 8:55 PM)
Average temperature yesterday: 33 °F

High & Low Weather Summary for the Past Weeks

 TemperatureHumidityPressure
High63 °F (Feb 3, 1:51 PM)90% (Feb 1, 5:51 AM)30.39 "Hg (Feb 1, 5:51 AM)
Low19 °F (Feb 10, 4:51 PM)34% (Feb 2, 6:51 PM)29.53 "Hg (Feb 9, 4:51 AM)
Average36 °F67%29.91 "Hg
* Reported Jan 26 8:51 PM — Feb 10 8:51 PM, Erie, Weather by CustomWeather, © 2016

Note: Actual official high and low records may vary slightly from our data, if they occured in-between our weather recording intervals... More about our weather records

Advertising

Erie Weather History for the Previous 24 Hours

 ConditionsComfort  
Time TempWeatherWind HumidityBarometerVisibility
8:51 PM
Wed, Feb 10
19 °FMostly cloudy.15 mph62%29.90 "Hg10 mi
7:51 PM20 °FOvercast.14 mph55%29.90 "Hg10 mi
6:51 PM20 °FOvercast.17 mph55%29.89 "Hg5 mi
6:00 PM20 °FLight snow. Mostly cloudy.15 mph62%29.85 "Hg1 mi
4:51 PM19 °FMostly cloudy.14 mph68%29.86 "Hg5 mi
3:51 PM20 °FMostly cloudy.16 mph65%29.83 "Hg4 mi
3:04 PM21 °FLight snow. Mostly cloudy.21 mph68%29.78 "Hg2 mi
2:51 PM21 °FMore clouds than sun.18 mph65%29.80 "Hg3 mi
1:51 PM23 °FLight snow. Cloudy.18 mph65%29.77 "Hg2 mi
12:57 PM23 °FSnow. Ice fog.13 mph85%29.73 "Hg0 mi
11:51 AM23 °FSnow. Ice fog.6 mph85%29.76 "Hg0 mi
11:03 AM23 °FHeavy snow. Ice fog.10 mph85%29.74 "Hg0 mi
10:51 AM24 °FHeavy snow. Mostly cloudy.13 mph77%29.76 "Hg0 mi
9:51 AM25 °FLight snow. Overcast.14 mph72%29.74 "Hg1 mi
8:51 AM25 °FLight snow. Overcast.16 mph75%29.73 "Hg2 mi
7:59 AM26 °FLight snow. Mostly cloudy.17 mph74%29.70 "Hg3 mi
6:59 AM25 °FLight snow. Mostly cloudy.18 mph78%29.69 "Hg2 mi
5:56 AM25 °FLight snow. Overcast.17 mph81%29.67 "Hg1 mi
4:51 AM27 °FLight snow. Mostly cloudy.20 mph78%29.67 "Hg6 mi
3:51 AM27 °FLight snow. Mostly cloudy.17 mph78%29.66 "Hg6 mi
2:51 AM28 °FLight snow. Overcast.18 mph78%29.65 "Hg3 mi
1:51 AM28 °FLight snow. Mostly cloudy.15 mph81%29.65 "Hg1 mi
12:58 AM28 °FLight snow. Overcast.18 mph81%29.62 "Hg2 mi
12:02 AM28 °FLight snow. Ice fog.17 mph85%29.62 "Hg1 mi
10:51 PM
Tue, Feb 9
29 °FLight snow. Mostly cloudy.16 mph82%29.63 "Hg1 mi
Weather by CustomWeather, © 2016

See weather overviewHow to use our weather pages